Location: Central Falls
(41.8900°N, 71.3929°W)
Time: 10:30:39
(UTC+00:00)

A-11 Canister half - Pass Details

Date: 12 December 2023
Orbit: 1526 x 1682 km, 47.3° (Epoch: 20 February)

Event Time Altitude Azimuth Distance (km) Brightness Sun altitude
Rises 23:54:05 0° 263° (W) 4,921 12.9 -28.8°
Reaches altitude 10° 23:57:17 10° 266° (W) 3,940 12.1 -29.4°
Maximum altitude 00:07:26 69° 349° (N) 1,780 9.2 -31.3°
Enters shadow 00:09:46 55° 45° (NE) 1,957 9.2 -31.7°
Drops below altitude 10° 00:17:29 10° 73° (ENE) 3,906 - -33.2°
Sets 00:20:38 0° 76° (ENE) 4,877 - -33.7°
